Red Deer, Alberta

8:18 AM MDT on August 16, 2017 (GMT -0600)
Red Deer

Weather History for CYQF - July, 2013

Change the Weather History Date:

Sunday, July 14, 2013

  Actual Average Record
Temperature  
Mean Temperature 60 °F -  
Max Temperature 72 °F 73 °F 86 °F (2007)
Min Temperature 49 °F 47 °F 41 °F (1998)
Degree Days  
Heating Degree Days 4    
Growing Degree Days 10 (Base 50)    
Moisture  
Dew Point 50 °F    
Average Humidity 75    
Maximum Humidity 94    
Minimum Humidity 43    
Precipitation  
Precipitation 0.43 in 0.10 in - ()
Sea Level Pressure  
Sea Level Pressure 30.13 in    
Wind  
Wind Speed 6 mph ()    
Max Wind Speed 17 mph    
Max Gust Speed 26 mph    
Visibility 14.4 miles    
Events Rain , Thunderstorm    
Averages and records for this station are not official NWS values.
T = Trace of Precipitation, MM = Missing Value Source: Averaged Metar Reports

Daily Weather History Graph

Daily Weather History Graph

Search for Another Location

Airport or City:

Trip Planner

Search our weather history database for the weather conditions in past years. The results will help you decide how hot, cold, wet, or windy it might be!

Date:

Astronomy

Jul. 14, 2013 Rise Set
Actual Time 5:31 AM MDT 9:50 PM MDT
Civil Twilight 4:45 AM MDT 10:36 PM MDT
Nautical Twilight 3:37 AM MDT 11:44 PM MDT
Astronomical Twilight 2:13 AM MDT 1:09 AM MDT
Moon 12:49 PM MDT (7/14) No Moon Set
Length of Visible Light 17h 50m
Length of Day
16h 18m
Waxing Crescent, 35% of the Moon is Illuminated
Jul 14
Waxing Crescent
Jul 15
First Quarter
Jul 22
Full
Jul 29
Last Quarter
Aug 6
New

Hourly Weather History & Observations

Time (MDT) Temp. Dew Point Humidity Pressure Visibility Wind Dir Wind Speed Gust Speed Precip Events Conditions
12:00 AM 49 °F 47 °F 90% 30.27 in 15 mi North 4.6 mph - -   Overcast
12:00 AM 50.0 °F 46.4 °F 87% 30.27 in 15.0 mi North 5.8 mph - N/A   Overcast
12:44 AM - - N/A% - 10.0 mi Calm Calm - N/A Rain Light Rain Showers
1:00 AM 50.0 °F 48.2 °F 94% 30.28 in 10.0 mi ENE 8.1 mph - N/A Rain Light Rain Showers
2:00 AM 50.0 °F 48.2 °F 94% 30.26 in 15.0 mi East 6.9 mph - N/A Rain Light Rain Showers
3:00 AM 50.0 °F 48.2 °F 94% 30.25 in 15.0 mi SE 6.9 mph - N/A Rain Light Rain
4:00 AM 50.0 °F 48.2 °F 94% 30.23 in 15.0 mi SE 4.6 mph - N/A Rain Light Rain
4:35 AM - - N/A% - 15.0 mi SE 6.9 mph - N/A   Mostly Cloudy
5:00 AM 51.8 °F 48.2 °F 88% 30.22 in 15.0 mi SE 4.6 mph - N/A   Mostly Cloudy
6:00 AM 52 °F 48 °F 83% 30.20 in 15 mi SE 4.6 mph - -   Partly Cloudy
6:00 AM 51.8 °F 48.2 °F 88% 30.20 in 15.0 mi SE 4.6 mph - N/A   Mostly Cloudy
7:00 AM 51.8 °F 48.2 °F 88% 30.18 in 15.0 mi South 6.9 mph - N/A   Mostly Cloudy
8:00 AM 53.6 °F 48.2 °F 82% 30.17 in 15.0 mi South 9.2 mph - N/A   Mostly Cloudy
9:00 AM 55.4 °F 48.2 °F 77% 30.17 in 15.0 mi SSW 5.8 mph - N/A   Mostly Cloudy
10:00 AM 57.2 °F 50.0 °F 77% 30.17 in 15.0 mi South 11.5 mph - N/A   Mostly Cloudy
11:00 AM 60.8 °F 51.8 °F 72% 30.15 in 15.0 mi South 11.5 mph - N/A   Mostly Cloudy
12:00 PM 62 °F 52 °F 62% 30.13 in 15 mi South 8.1 mph - -   Mostly Cloudy
12:00 PM 62.6 °F 51.8 °F 68% 30.13 in 15.0 mi South 9.2 mph - N/A   Mostly Cloudy
1:00 PM 64.4 °F 51.8 °F 64% 30.12 in 15.0 mi SSE 2.3 mph - N/A   Mostly Cloudy
2:00 PM 68.0 °F 53.6 °F 60% 30.10 in 15.0 mi SSE 6.9 mph - N/A   Scattered Clouds
3:00 PM 68.0 °F 51.8 °F 56% 30.07 in 15.0 mi ESE 5.8 mph - N/A   Mostly Cloudy
4:00 PM 69.8 °F 53.6 °F 56% 30.05 in 15.0 mi East 6.9 mph - N/A   Mostly Cloudy
5:00 PM 71.6 °F 50.0 °F 46% 30.03 in 15.0 mi SSE 5.8 mph - N/A   Mostly Cloudy
6:00 PM 70 °F 52 °F 43% 30.01 in 15 mi SE 4.6 mph - -   Mostly Cloudy
6:00 PM 69.8 °F 51.8 °F 53% 30.01 in 15.0 mi SE 5.8 mph - N/A   Mostly Cloudy
7:00 PM 66.2 °F 46.4 °F 49% 29.98 in 15.0 mi SSE 4.6 mph - N/A   Mostly Cloudy
8:00 PM 62.6 °F 51.8 °F 68% 29.97 in 15.0 mi Calm Calm - N/A   Mostly Cloudy
8:45 PM - - N/A% - 15.0 mi NNW 9.2 mph - N/A   Mostly Cloudy
9:00 PM 59.0 °F 53.6 °F 82% 30.04 in 15.0 mi NNE 13.8 mph - N/A Rain Light Rain Showers
10:00 PM 55.4 °F 51.8 °F 88% 29.99 in 15.0 mi North 17.3 mph 26.5 mph N/A Rain , Thunderstorm Light Thunderstorms and Rain
10:14 PM - - N/A% - 6.0 mi NNE 15.0 mph 23.0 mph N/A Rain , Thunderstorm Thunderstorms and Rain
10:25 PM - - N/A% - 15.0 mi NNE 15.0 mph - N/A Rain , Thunderstorm Light Thunderstorms and Rain
11:00 PM 55.4 °F 51.8 °F 88% 30.04 in 15.0 mi WNW 17.3 mph 26.5 mph N/A Rain , Thunderstorm Light Thunderstorms and Rain